Simultaneous Nadir Overpasses (SNOs) Predictions

Prediction of SNOs between GOES-16 and LANDSAT-8 Satellite Orbit:

Table of predicted SNOs for the next 14.0 days since TLE Epoch: 8/31/2019
Index Date Time (GOES-16) GOES-16 Lat,Lon LANDSAT-8 Lat,Lon Distance(km) Time Diff (sec)
1 09/01/2019 03:12:29 -0.00, -75.18 0.10, -74.66 59.24 80
2 09/03/2019 03:00:18 -0.00, -75.19 0.72, -71.70 396.63 80
3 09/03/2019 15:21:34 0.00, -75.21 0.35, -76.86 187.97 80
4 09/05/2019 15:06:43 -0.00, -75.22 -0.27, -73.90 150.01 80
5 09/06/2019 03:30:46 0.00, -75.22 -0.85, -79.09 441.10 80
6 09/07/2019 14:54:32 0.00, -75.24 -0.89, -70.94 488.46 80
7 09/08/2019 03:18:37 -0.00, -75.24 -0.17, -76.14 102.52 80
8 09/10/2019 03:03:46 -0.00, -75.26 0.46, -73.19 236.77 80
9 09/10/2019 15:27:40 0.00, -75.28 0.68, -78.33 347.37 80
10 09/12/2019 15:15:30 -0.00, -75.32 -0.01, -75.39 7.70 80




NCC Satellite Simultaneous Nadir Overpasses (SNOs) Prediction Service
